sat.trackr.live / text

‹ back to catalog

ONEWEB-0339

NORAD 49205 · 2021-083V

PAYLOAD ACTIVE UNKNOWN

§ Identity

Operator
Country
UK
Launch date
2021-09-14
Launch site
TYMSC
Launch vehicle
Mass (kg)
RCS (m²)

Purposes: comms

External: N2YO · Heavens-Above · Gunter

§ Orbital elements

Epoch: 2026-09-04T02:54:22.055040Z

Period
109.63 min
Inclination
87.8941°
Eccentricity
0.0002051
Mean motion
13.13473132 rev/d
Perigee alt
1,208.2 km
Apogee alt
1,211.3 km
Semi-major
7,587.9 km
B*
-6.3554e-4
RAAN
304.5233°
Arg perigee
93.1464°
Mean anomaly
266.9899°
Rev number
24,125

§ Raw data

ONEWEB-03391 49205U 21083V   26247.12108860 -.00000219  00000+0 -63554-3 0  99902 49205  87.8941 304.5233 0002051  93.1464 266.9899 13.13473132241255

JSON: /api/v1/satellites/49205 · /tle

For live sub-satellite position, see the globe view (requires WebGL).

§ Visibility from observer

Set your observer location to see the next 7 days of passes ≥ 10°. The values pass through the URL so the page stays shareable.

No JS? Fill the form by hand. The geolocation button needs JavaScript.